Regional Weather Roundup
Issued by NWS

Home | Current Version | Previous Version | Graphics & Text | Print | Product List | Glossary On
Versions: 1 2 3 4 5 6 7 8 9 10 11 12 13 14 15 16 17 18 19 20 21 22 23 24 25 26 27 28 29 30 31 32 33 34 35 36 37 38 39 40 41 42 43 44 45 46 47 48 49 50
808
ASUS43 KLMK 220202
RWRKY
KENTUCKY REGIONAL WEATHER ROUNDUP
NATIONAL WEATHER SERVICE LOUISVILLE KY
1000 PM EDT THU SEP 21 2017

NOTE "FAIR" INDICATES FEW OR NO CLOUDS BELOW 12,000 FEET
WITH NO SIGNIFICANT WEATHER AND/OR OBSTRUCTIONS TO VISIBILITY.

KYZ001>023-026-027-061>063-070>075-220300-
WESTERN AND SOUTH CENTRAL KENTUCKY

CITY           SKY/WX    TMP DP  RH WIND       PRES   REMARKS
PADUCAH        CLEAR     78  70  76 S6        30.00R
HENDERSON      CLEAR     78  70  76 CALM      30.03R
OWENSBORO      CLEAR     80  71  74 E3        30.03R
HOPKINSVILLE   NOT AVBL
BOWLING GREEN  CLEAR     74  70  87 CALM      30.04R
GLASGOW        CLEAR     73  69  86 CALM      30.05S
$$

KYZ024-025-028>034-038-045-046-053-220300-
NORTH CENTRAL KENTUCKY

CITY           SKY/WX    TMP DP  RH WIND       PRES   REMARKS
LOUISVILLE/SDF CLEAR     82  69  64 SE3       30.05R
LOUISVILLE/LOU CLEAR     76  73  91 CALM      30.05R
FORT KNOX      CLEAR     72  71  95 CALM      30.05R
$$

KYZ035>037-039>044-047>052-055>060-089>105-220300-
NORTHEAST KENTUCKY

CITY           SKY/WX    TMP DP  RH WIND       PRES   REMARKS
LEXINGTON      CLEAR     74  67  78 CALM      30.08R
COVINGTON      PTCLDY    74  72  93 CALM      30.07R
FRANKFORT      CLEAR     73  67  81 CALM      30.06R
$$

KYZ054-064>069-076>088-106>120-220300-
SOUTHEAST KENTUCKY

CITY           SKY/WX    TMP DP  RH WIND       PRES   REMARKS
JACKSON        CLEAR     74  65  73 CALM      30.10R
LONDON         CLEAR     72  65  78 CALM      30.09R
SOMERSET       NOT AVBL
MIDDLESBORO    CLEAR     68  66  93 SW5       30.10R
MONTICELLO     CLEAR     66  65  96 W8        30.09R
$$





USA.gov is the U.S. government's official web portal to all federal, state and local government web resources and services.